Home   Weather   Birmingham   Past weeks

Flag for United Kingdom Past Weather in Birmingham, England, United Kingdom — Yesterday and Last 2 Weeks

Now
57 °F

Light rain. Broken clouds.


Feels Like: 55 °F
Forecast: 54 / 65 °F
Wind: 9 mph from South

Location: Birmingham / Airport

Current Time: Sep 26, 2016 at 3:04:38 PM

Latest Report: Sep 26, 2016 at 2:20 PM


Visibility: 5 mi

Pressure: 30.12 "Hg

Humidity: 94%

Dew Point: 55 °F

Location of BirminghamLocation

Past Weather in Birmingham — Graph

°F

Birmingham Temperature Yesterday

Maximum temperature yesterday: 64 °F (at 1:50 PM)
Minimum temperature yesterday: 48 °F (at 11:50 PM)
Average temperature yesterday: 58 °F

High & Low Weather Summary for the Past Weeks

 TemperatureHumidityPressure
High81 °F (Sep 13, 12:50 PM)100% (Sep 12, 12:20 AM)30.24 "Hg (Sep 12, 12:20 AM)
Low45 °F (Sep 23, 4:20 AM)51% (Sep 13, 12:50 PM)29.68 "Hg (Sep 25, 3:20 AM)
Average60 °F83%30.01 "Hg
* Reported Sep 11 1:20 PM — Sep 26 1:50 PM, Birmingham, Weather by CustomWeather, © 2016

Note: Actual official high and low records may vary slightly from our data, if they occured in-between our weather recording intervals... More about our weather records

Advertising

Birmingham Weather History for the Previous 24 Hours

Scroll right to see more
 ConditionsComfort  
Time TempWeatherWind HumidityBarometerVisibility
1:50 PM
Mon, Sep 26
57 °FRain. Broken clouds.9 mph94%30.12 "HgN/A
1:20 PM55 °FLight rain. Broken clouds.9 mph100%30.12 "Hg6 mi
12:50 PM55 °FLight rain. Broken clouds.9 mph100%30.12 "Hg6 mi
12:20 PM55 °FLight rain. Scattered clouds.8 mph100%30.12 "HgN/A
11:50 AM55 °FLight rain. Scattered clouds.9 mph94%30.12 "HgN/A
11:20 AM54 °FLight rain. Passing clouds.8 mph100%30.12 "HgN/A
10:50 AM54 °FLight rain. Passing clouds.8 mph100%30.12 "HgN/A
10:20 AM54 °FLight rain. Passing clouds.8 mph94%30.12 "HgN/A
9:50 AM54 °FSunny.7 mph94%30.12 "Hg10 mi
9:20 AM52 °FSunny.5 mph100%30.12 "Hg10 mi
8:50 AM52 °FPassing clouds.7 mph94%30.12 "HgN/A
8:20 AM50 °FScattered clouds.6 mph100%30.12 "HgN/A
7:50 AM50 °FScattered clouds.6 mph100%30.12 "HgN/A
7:20 AM50 °FSunny.5 mph100%30.12 "Hg10 mi
6:50 AM50 °FPassing clouds.3 mph100%30.12 "HgN/A
6:20 AM50 °FClear.5 mph94%30.12 "Hg10 mi
5:50 AM48 °FClear.6 mph100%30.12 "Hg10 mi
5:20 AM50 °FPassing clouds.6 mph100%30.12 "HgN/A
4:50 AM50 °FClear.6 mph100%30.12 "Hg10 mi
4:20 AM48 °FClear.6 mph100%30.12 "Hg10 mi
3:50 AM48 °FClear.2 mph100%30.12 "Hg10 mi
3:20 AM48 °FClear.3 mph100%30.12 "Hg10 mi
2:50 AM46 °FClear.5 mph100%30.12 "Hg10 mi
2:20 AM46 °FClear.6 mph100%30.12 "Hg10 mi
1:50 AM46 °FClear.6 mph100%30.12 "Hg10 mi
1:20 AM46 °FClear.6 mph100%30.12 "Hg10 mi
12:50 AM46 °FClear.5 mph100%30.12 "Hg10 mi
12:20 AM48 °FClear.6 mph100%30.12 "Hg10 mi
11:50 PM
Sun, Sep 25
48 °FClear.5 mph100%30.09 "Hg10 mi
11:20 PM50 °FClear.5 mph94%30.09 "Hg10 mi
10:50 PM50 °FClear.5 mph94%30.09 "Hg10 mi
10:20 PM52 °FClear.6 mph88%30.09 "Hg10 mi
9:50 PM50 °FClear.6 mph94%30.09 "Hg10 mi
9:20 PM50 °FPassing clouds.6 mph88%30.07 "HgN/A
8:50 PM52 °FPassing clouds.5 mph82%30.07 "HgN/A
8:20 PM55 °FPassing clouds.5 mph72%30.07 "HgN/A
7:50 PM55 °FPassing clouds.7 mph72%30.04 "HgN/A
7:20 PM57 °FPassing clouds.6 mph67%30.04 "HgN/A
6:50 PM57 °FPassing clouds.9 mph67%30.04 "HgN/A
6:20 PM59 °FPassing clouds.8 mph63%30.01 "HgN/A
5:50 PM61 °FScattered clouds.8 mph59%30.01 "HgN/A
5:20 PM61 °FPassing clouds.9 mph55%30.01 "HgN/A
4:50 PM61 °FPassing clouds.12 mph55%29.98 "HgN/A
4:20 PM63 °FScattered clouds.13 mph52%29.98 "HgN/A
3:50 PM63 °FScattered showers. Scattered clouds.12 mph52%29.98 "HgN/A
3:20 PM63 °FScattered showers. Scattered clouds.13 mph52%29.95 "HgN/A
Weather by CustomWeather, © 2016

See weather overviewHow to use our weather pages